Tracking 21094 objects as of 13-Aug-2020
HD Live streaming from Space Station
objects crossing your sky now
Track the most recent launched group of Starlink satellites

GAOFEN DUOMO (GFDM)

Track GAOFEN DUOMO (GFDM) now!
10-day predictions


NORAD ID: 45856
Int'l Code: 2020-042A
Perigee: 635.8 km
Apogee: 658.0 km
Inclination: 98.0 °
Period: 97.5 minutes
Semi major axis: 7017 km
RCS: Unknown
Launch date: July 3, 2020
Source: People's Republic of China (PRC)
Launch site: Taiyaun Space Center, China (TSC)
aabbcc
Your satellite tracking list
Your tracking list is empty




NASA's NSSDC Master Catalog

Two Line Element Set (TLE):
1 45856U 20042A   20225.83315187  .00000039  00000-0  12957-4 0  9993
2 45856  98.0143 298.5746 0015801 135.3977 224.8490 14.76687910  6000
Source of the keplerian elements: AFSPC